THAICOM 8

Last updated on Thu Nov 06 2025 00:02:48 GMT+0000 (Coordinated Universal Time)

1 41552U 16031A 25309.02753084 -.00000109 00000+0 00000+0 0 9995 2 41552 0.0766 29.6871 0002596 238.5807 224.6757 1.00271683 34475
UTC large
Height (km)
Speed (km/s)
/
Latitude / Longitude
Inclination (degrees)
Orbital Period (minutes)
Azimuth
Elevation
Range (km)
Doppler Factor

Next 0 passes for location: London (51.5072 / 0.1276)

Sorry there are no passes over London.